QPF
0.00 0.00 0.00 0.00 0.00 0.00 0.00 0.00 0.00 0.00 0.00 0.00 0.00 0.00 0.00 0.00 0.00 0.00 0.00 0.00 0.00 0.00 0.00 0.00 0.01 0.00 0.00 0.00 0.00 0.04 0.05 0.03 0.02 0.07 0.07 0.01 0.03 0.01 0.00 0.00 0.00 0.00 0.00 0.00 0.00
0.00 0.00 0.00 0.00 0.00 0.00 0.00 0.00 0.00 0.00 0.00 0.00 0.00 0.00 0.00 0.00 0.00 0.00 0.00 0.00 0.00 0.00 0.00 0.00 0.00 0.01 0.03 0.02 0.00 0.02 0.01 0.01 0.02 0.02 0.02 0.06 0.01 0.01 0.00 0.00 0.00 0.00 0.00 0.00 0.00
0.00 0.00 0.00 0.00 0.00 0.00 0.00 0.00 0.00 0.00 0.00 0.00 0.00 0.00 0.00 0.00 0.00 0.00 0.00 0.00 0.00 0.00 0.00 0.00 0.00 0.00 0.02 0.03 0.01 0.01 0.00 0.00 0.00 0.00 0.00 0.07 0.07 0.02 0.00 0.00 0.00 0.00 0.00 0.00 0.00
0.00 0.00 0.00 0.00 0.00 0.00 0.00 0.00 0.00 0.00 0.00 0.00 0.00 0.00 0.00 0.00 0.00 0.00 0.00 0.00 0.00 0.00 0.00 0.00 0.00 0.01 0.01 0.01 0.00 0.00 0.00 0.00 0.00 0.00 0.00 0.04 0.11 0.03 0.01 0.00 0.01 0.00 0.00 0.00 0.00
0.00 0.00 0.00 0.00 0.00 0.00 0.00 0.00 0.00 0.00 0.00 0.00 0.00 0.00 0.00 0.00 0.00 0.00 0.00 0.00 0.00 0.00 0.00 0.00 0.00 0.00 0.00 0.00 0.00 0.00 0.00 0.00 0.00 0.00 0.00 0.01 0.04 0.09 0.11 0.05 0.00 0.00 0.00 0.00 0.00
0.00 0.00 0.00 0.00 0.00 0.00 0.00 0.00 0.00 0.00 0.00 0.00 0.00 0.00 0.00 0.00 0.00 0.00 0.00 0.00 0.00 0.00 0.00 0.00 0.00 0.00 0.00 0.00 0.00 0.00 0.00 0.00 0.00 0.00 0.00 0.00 0.00 0.02 0.31 0.07 0.01 0.00 0.00 0.00 0.00
0.00 0.00 0.00 0.00 0.00 0.00 0.00 0.00 0.00 0.00 0.00 0.00 0.00 0.00 0.00 0.00 0.00 0.00 0.00 0.00 0.00 0.00 0.00 0.00 0.00 0.00 0.00 0.00 0.00 0.00 0.00 0.01 0.04 0.03 0.01 0.00 0.00 0.00 0.05 0.08 0.03 0.00 0.00 0.00 0.00
0.00 0.00 0.00 0.00 0.00 0.00 0.00 0.00 0.00 0.00 0.00 0.00 0.00 0.00 0.00 0.00 0.00 0.00 0.00 0.00 0.00 0.00 0.00 0.00 0.00 0.00 0.00 0.00 0.00 0.00 0.00 0.01 0.02 0.01 0.00 0.00 0.00 0.00 0.00 0.00 0.01 0.00 0.00 0.00 0.00
0.00 0.00 0.00 0.00 0.00 0.00 0.00 0.00 0.00 0.00 0.00 0.00 0.00 0.00 0.00 0.00 0.00 0.00 0.00 0.00 0.00 0.00 0.00 0.00 0.00 0.00 0.00 0.00 0.00 0.00 0.00 0.00 0.00 0.00 0.00 0.00 0.00 0.00 0.00 0.00 0.00 0.00 0.00 0.00 0.00
0.00 0.00 0.00 0.00 0.00 0.00 0.00 0.00 0.00 0.00 0.00 0.00 0.00 0.00 0.00 0.00 0.00 0.00 0.00 0.00 0.00 0.00 0.00 0.00 0.00 0.00 0.00 0.00 0.00 0.00 0.00 0.00 0.00 0.00 0.00 0.00 0.00 0.00 0.00 0.00 0.00 0.00 0.00 0.00 0.00
0.00 0.00 0.00 0.00 0.00 0.00 0.00 0.00 0.00 0.00 0.00 0.00 0.00 0.00 0.00 0.00 0.00 0.00 0.00 0.00 0.00 0.00 0.00 0.00 0.00 0.00 0.00 0.00 0.00 0.00 0.00 0.00 0.00 0.00 0.00 0.00 0.00 0.00 0.00 0.00 0.00 0.00 0.00 0.00 0.00
0.00 0.00 0.00 0.00 0.00 0.00 0.00 0.00 0.00 0.00 0.00 0.00 0.00 0.00 0.00 0.00 0.00 0.00 0.00 0.00 0.00 0.00 0.00 0.00 0.00 0.00 0.00 0.00 0.00 0.00 0.00 0.00 0.00 0.00 0.00 0.00 0.00 0.00 0.00 0.00 0.00 0.00 0.00 0.00 0.00
0.00 0.00 0.00 0.00 0.00 0.00 0.00 0.00 0.00 0.00 0.00 0.00 0.00 0.00 0.00 0.00 0.00 0.00 0.00 0.00 0.00 0.00 0.00 0.00 0.00 0.00 0.00 0.00 0.00 0.00 0.00 0.00 0.00 0.00 0.00 0.00 0.00 0.00 0.00 0.00 0.00 0.00 0.00 0.00 0.00
0.00 0.00 0.00 0.00 0.00 0.00 0.00 0.00 0.00 0.00 0.00 0.00 0.00 0.00 0.00 0.00 0.00 0.00 0.00 0.00 0.00 0.00 0.00 0.00 0.00 0.00 0.00 0.00 0.00 0.00 0.00 0.00 0.00 0.00 0.00 0.00 0.00 0.00 0.00 0.00 0.00 0.00 0.00 0.00 0.00
0.00 0.00 0.00 0.00 0.00 0.00 0.00 0.00 0.00 0.00 0.00 0.00 0.00 0.00 0.00 0.00 0.00 0.00 0.00 0.00 0.00 0.00 0.00 0.00 0.00 0.00 0.00 0.00 0.00 0.00 0.00 0.00 0.00 0.00 0.00 0.00 0.00 0.00 0.00 0.00 0.00 0.00 0.00 0.00 0.00
0.00 0.00 0.00 0.00 0.00 0.00 0.00 0.00 0.00 0.00 0.00 0.00 0.00 0.00 0.00 0.00 0.00 0.00 0.00 0.00 0.00 0.00 0.00 0.00 0.00 0.00 0.00 0.00 0.00 0.00 0.00 0.00 0.00 0.00 0.00 0.00 0.00 0.00 0.00 0.00 0.00 0.00 0.00 0.00 0.00
0.00 0.00 0.00 0.00 0.00 0.00 0.00 0.00 0.00 0.00 0.00 0.00 0.00 0.00 0.00 0.00 0.00 0.00 0.00 0.00 0.00 0.00 0.00 0.00 0.00 0.00 0.00 0.00 0.00 0.00 0.00 0.00 0.00 0.00 0.00 0.00 0.00 0.00 0.00 0.00 0.00 0.00 0.00 0.00 0.00
0.00 0.00 0.00 0.00 0.00 0.00 0.00 0.00 0.00 0.00 0.00 0.00 0.00 0.00 0.00 0.00 0.00 0.00 0.00 0.00 0.00 0.00 0.00 0.00 0.00 0.00 0.00 0.00 0.00 0.00 0.00 0.00 0.00 0.00 0.00 0.00 0.00 0.00 0.00 0.00 0.00 0.00 0.00 0.00 0.00
0.00 0.00 0.00 0.00 0.00 0.00 0.00 0.00 0.00 0.00 0.00 0.00 0.00 0.00 0.00 0.00 0.00 0.00 0.00 0.00 0.00 0.00 0.00 0.00 0.00 0.00 0.00 0.00 0.00 0.00 0.00 0.00 0.00 0.00 0.00 0.00 0.00 0.00 0.00 0.00 0.00 0.00 0.00 0.00 0.00
0.00 0.00 0.00 0.00 0.00 0.00 0.00 0.00 0.00 0.00 0.00 0.00 0.00 0.00 0.00 0.00 0.00 0.00 0.00 0.00 0.00 0.00 0.00 0.00 0.00 0.00 0.00 0.00 0.00 0.00 0.00 0.00 0.00 0.00 0.00 0.00 0.00 0.00 0.00 0.00 0.00 0.00 0.00 0.00 0.00
0.00 0.00 0.00 0.00 0.00 0.00 0.00 0.00 0.00 0.00 0.00 0.00 0.00 0.00 0.00 0.00 0.00 0.00 0.00 0.00 0.00 0.00 0.00 0.00 0.00 0.00 0.00 0.00 0.00 0.00 0.00 0.00 0.00 0.00 0.00 0.00 0.00 0.00 0.00 0.00 0.00 0.00 0.00 0.00 0.00
0.00 0.00 0.00 0.00 0.00 0.00 0.00 0.00 0.00 0.00 0.00 0.00 0.00 0.00 0.00 0.00 0.00 0.00 0.00 0.00 0.00 0.00 0.00 0.00 0.00 0.00 0.00 0.00 0.00 0.00 0.00 0.00 0.00 0.00 0.00 0.00 0.00 0.00 0.00 0.00 0.00 0.00 0.00 0.00 0.00
0.00 0.00 0.00 0.00 0.00 0.00 0.00 0.00 0.00 0.00 0.00 0.00 0.00 0.00 0.00 0.00 0.00 0.00 0.00 0.00 0.00 0.00 0.00 0.00 0.00 0.00 0.00 0.00 0.00 0.00 0.00 0.00 0.00 0.00 0.00 0.00 0.00 0.00 0.00 0.00 0.00 0.00 0.00 0.00 0.00
0.00 0.00 0.00 0.00 0.00 0.00 0.00 0.00 0.00 0.00 0.00 0.00 0.00 0.00 0.00 0.00 0.00 0.00 0.00 0.00 0.00 0.00 0.00 0.00 0.00 0.00 0.00 0.00 0.00 0.00 0.00 0.00 0.00 0.00 0.00 0.00 0.00 0.00 0.00 0.00 0.00 0.00 0.00 0.00 0.00
0.00 0.00 0.00 0.00 0.00 0.00 0.00 0.00 0.00 0.00 0.00 0.00 0.00 0.00 0.00 0.00 0.00 0.00 0.00 0.00 0.00 0.00 0.00 0.00 0.00 0.00 0.00 0.00 0.00 0.00 0.00 0.00 0.00 0.00 0.00 0.00 0.00 0.00 0.00 0.00 0.00 0.00 0.00 0.00 0.00
0.00 0.00 0.00 0.00 0.00 0.00 0.00 0.00 0.00 0.00 0.00 0.00 0.00 0.00 0.00 0.00 0.00 0.00 0.00 0.00 0.00 0.00 0.00 0.00 0.00 0.00 0.00 0.00 0.00 0.00 0.00 0.00 0.00 0.00 0.00 0.00 0.00 0.00 0.00 0.00 0.00 0.00 0.00 0.00 0.00
0.00 0.00 0.00 0.00 0.00 0.00 0.00 0.00 0.00 0.00 0.00 0.00 0.00 0.00 0.00 0.00 0.00 0.00 0.00 0.00 0.00 0.00 0.00 0.00 0.00 0.00 0.00 0.00 0.00 0.00 0.00 0.00 0.00 0.00 0.00 0.00 0.00 0.00 0.00 0.02 0.02 0.00 0.00 0.00 0.00
MSLP
1016.74 1016.40 1016.04 1015.63 1015.25 1014.89 1014.60 1014.20 1013.73 1013.29 1012.73 1012.25 1011.82 1011.51 1011.05 1010.30 1009.29 1009.18 1008.15 1006.59 1007.08 1007.80 1008.33 1008.75 1008.88 1009.13 1009.48 1009.65 1009.55 1009.84 1010.20 1010.30 1010.06 1009.93 1010.03 1009.79 1009.99 1010.01 1010.19 1010.73 1010.83 1011.10 1012.04 1012.97 1014.11
1016.69 1016.31 1015.96 1015.68 1015.28 1014.90 1014.53 1014.11 1013.68 1013.25 1012.83 1012.17 1011.65 1011.22 1010.83 1010.34 1009.53 1008.29 1006.60 1006.41 1006.80 1007.47 1008.31 1008.52 1008.71 1009.34 1009.69 1009.72 1009.85 1009.97 1010.25 1009.88 1009.73 1009.84 1010.03 1010.13 1010.30 1010.15 1010.61 1011.12 1011.87 1011.99 1012.76 1013.55 1014.37
1016.93 1016.48 1016.02 1015.64 1015.14 1014.83 1014.50 1013.99 1013.57 1013.22 1012.77 1012.31 1011.70 1011.10 1010.73 1010.15 1009.23 1007.20 1006.49 1006.47 1006.69 1007.27 1007.74 1008.16 1008.33 1009.10 1009.54 1009.70 1009.55 1009.70 1009.79 1009.50 1009.55 1009.62 1009.61 1010.37 1010.47 1010.58 1010.82 1011.51 1011.98 1012.44 1013.13 1013.89 1014.52
1017.16 1016.66 1016.18 1015.69 1015.13 1014.63 1014.13 1013.75 1013.38 1012.95 1012.69 1012.34 1011.78 1011.10 1010.41 1009.92 1008.75 1006.82 1006.35 1006.69 1007.01 1007.28 1007.84 1008.24 1008.80 1009.05 1008.90 1009.04 1008.81 1009.15 1008.98 1009.10 1009.43 1009.62 1009.75 1010.31 1011.05 1011.36 1011.68 1012.26 1012.22 1012.79 1013.36 1013.85 1014.54
1017.07 1016.60 1016.11 1015.57 1015.03 1014.47 1013.97 1013.54 1013.15 1012.81 1012.47 1012.15 1011.74 1011.28 1010.36 1009.76 1007.77 1006.75 1006.79 1007.07 1007.43 1007.59 1007.68 1007.95 1008.49 1008.40 1008.29 1008.11 1008.19 1008.64 1008.94 1009.29 1009.43 1009.57 1009.94 1010.83 1011.24 1011.33 1011.95 1012.11 1012.12 1013.08 1013.67 1014.20 1014.37
1016.84 1016.36 1015.84 1015.36 1014.78 1014.20 1013.68 1013.29 1012.91 1012.53 1012.20 1012.00 1011.82 1011.49 1011.06 1009.47 1006.56 1006.54 1007.06 1007.43 1007.27 1007.61 1007.73 1007.56 1007.39 1007.44 1007.63 1007.74 1008.13 1008.48 1008.93 1009.65 1010.06 1010.06 1010.60 1011.37 1011.65 1011.53 1011.92 1011.91 1012.32 1012.95 1013.71 1014.27 1014.46
1016.59 1016.05 1015.51 1014.93 1014.33 1013.76 1013.29 1012.85 1012.51 1012.07 1011.81 1011.72 1011.63 1011.53 1010.84 1007.82 1006.74 1006.87 1007.20 1007.34 1007.30 1007.43 1007.55 1007.33 1007.05 1007.27 1007.16 1007.66 1008.25 1008.74 1009.52 1010.20 1010.65 1010.62 1011.01 1011.29 1012.02 1011.75 1011.88 1012.20 1012.40 1012.82 1013.52 1014.06 1014.25
1016.42 1015.89 1015.28 1014.70 1013.98 1013.15 1012.60 1012.21 1011.81 1011.34 1011.25 1011.41 1011.53 1011.45 1009.94 1007.04 1006.86 1006.83 1006.70 1006.81 1007.08 1007.45 1007.31 1006.91 1006.86 1006.90 1007.31 1007.53 1008.34 1008.87 1009.64 1010.48 1010.66 1010.80 1011.15 1011.52 1011.65 1011.54 1012.04 1012.54 1012.49 1012.80 1013.23 1013.75 1014.21
1016.13 1015.53 1014.96 1014.37 1013.66 1012.80 1012.12 1011.60 1011.10 1010.74 1010.80 1011.21 1011.59 1011.33 1009.12 1006.76 1006.78 1006.15 1006.19 1006.38 1006.36 1007.07 1007.23 1006.81 1006.84 1007.18 1007.27 1008.02 1008.76 1009.28 1009.91 1010.37 1010.56 1010.52 1010.99 1011.61 1011.72 1011.77 1012.24 1012.57 1012.53 1012.55 1013.01 1013.28 1013.87
1015.97 1015.38 1014.77 1014.09 1013.39 1012.49 1011.77 1011.12 1011.06 1011.04 1011.38 1011.35 1011.07 1011.23 1008.56 1007.03 1006.27 1005.88 1005.82 1006.01 1006.15 1006.67 1007.31 1007.18 1007.27 1007.71 1008.20 1008.23 1008.71 1009.10 1009.68 1010.16 1010.25 1010.55 1010.96 1011.57 1011.86 1012.02 1012.13 1012.39 1012.24 1012.40 1012.62 1012.91 1013.26
1015.83 1015.18 1014.47 1013.85 1013.26 1012.61 1011.65 1011.19 1011.79 1011.44 1011.08 1010.54 1010.12 1009.43 1008.19 1006.88 1006.10 1005.73 1005.64 1005.97 1006.04 1006.55 1007.15 1007.29 1007.86 1008.02 1007.92 1007.99 1008.02 1008.41 1009.03 1009.68 1009.96 1010.38 1010.93 1011.16 1011.45 1011.68 1011.96 1012.17 1012.09 1012.20 1012.09 1012.39 1012.56
1015.70 1015.09 1014.37 1013.64 1012.89 1012.42 1012.27 1012.17 1012.48 1012.61 1011.47 1009.46 1008.73 1008.50 1007.62 1007.16 1007.08 1005.75 1005.35 1005.82 1006.12 1006.65 1007.09 1007.76 1007.74 1007.39 1007.56 1007.75 1007.95 1008.14 1008.50 1009.27 1009.93 1010.34 1010.85 1011.15 1011.22 1011.42 1011.53 1011.21 1011.43 1011.49 1011.63 1011.66 1012.14
1015.67 1015.12 1014.35 1013.47 1012.64 1012.47 1012.74 1012.15 1012.07 1012.16 1011.94 1009.12 1008.34 1007.83 1007.19 1007.20 1006.83 1005.69 1005.39 1005.31 1005.83 1006.69 1007.08 1007.43 1007.20 1007.08 1007.31 1007.58 1007.81 1007.90 1008.22 1008.87 1009.67 1010.42 1010.72 1011.18 1011.26 1011.06 1011.02 1011.10 1011.25 1011.01 1011.03 1011.17 1011.41
1015.19 1014.88 1014.48 1013.54 1012.86 1013.36 1012.45 1011.79 1011.55 1011.53 1011.54 1009.29 1007.82 1006.85 1006.81 1006.79 1006.07 1004.94 1004.74 1004.89 1005.63 1006.25 1007.24 1007.31 1006.82 1006.80 1007.04 1007.20 1007.39 1007.71 1007.70 1008.42 1009.48 1010.43 1011.10 1011.06 1011.32 1010.63 1010.15 1010.24 1010.40 1010.16 1010.19 1010.31 1010.65
1015.11 1014.78 1014.35 1014.09 1014.27 1013.51 1012.06 1011.50 1011.11 1011.16 1011.14 1008.50 1007.18 1006.17 1006.51 1006.62 1005.73 1004.71 1004.29 1004.57 1005.41 1006.13 1006.85 1006.96 1006.76 1006.71 1006.69 1006.70 1006.96 1007.31 1007.31 1008.21 1009.44 1010.74 1011.20 1011.38 1011.62 1009.74 1009.53 1009.77 1008.98 1008.81 1008.98 1009.08 1009.43
1014.75 1014.53 1014.19 1014.32 1014.46 1012.65 1011.94 1011.55 1011.30 1012.19 1010.86 1008.78 1007.48 1007.04 1006.90 1006.32 1005.64 1004.93 1004.53 1004.64 1005.45 1006.40 1006.79 1006.86 1006.59 1006.44 1006.26 1006.51 1006.65 1007.04 1007.71 1009.01 1010.38 1011.37 1011.86 1010.85 1010.98 1008.96 1008.56 1007.28 1007.55 1007.96 1008.22 1008.27 1008.69
1014.30 1014.04 1014.07 1014.05 1013.42 1012.50 1012.06 1011.98 1012.85 1012.35 1010.91 1009.93 1008.81 1008.26 1007.89 1007.04 1006.22 1005.72 1005.38 1005.56 1006.10 1007.14 1007.59 1007.47 1007.01 1006.43 1006.13 1006.64 1007.04 1007.45 1008.65 1010.17 1011.67 1012.45 1012.02 1010.76 1010.38 1007.82 1006.51 1005.93 1005.74 1006.13 1006.84 1007.34 1007.78
1013.80 1013.38 1013.47 1013.28 1012.80 1012.50 1012.43 1012.86 1013.32 1012.65 1011.70 1010.43 1009.76 1009.07 1008.84 1008.11 1007.33 1006.68 1006.36 1006.67 1006.87 1007.25 1008.50 1008.36 1007.91 1006.84 1006.41 1006.46 1007.01 1008.01 1008.77 1010.19 1011.33 1012.28 1011.83 1010.91 1009.28 1006.29 1004.88 1004.63 1004.63 1004.64 1005.10 1006.31 1007.01
1013.29 1013.48 1013.55 1012.71 1012.59 1012.90 1013.31 1013.86 1014.09 1013.43 1012.47 1011.59 1010.52 1010.28 1009.88 1009.09 1008.72 1007.77 1007.62 1007.63 1007.32 1007.42 1008.19 1008.70 1008.00 1006.95 1006.36 1006.48 1006.84 1008.36 1008.99 1009.48 1011.14 1012.31 1012.00 1010.30 1008.30 1005.71 1004.05 1004.09 1004.22 1004.31 1004.86 1005.37 1006.21
1013.97 1013.82 1013.39 1012.50 1012.69 1012.85 1013.92 1014.84 1014.30 1013.66 1012.98 1012.18 1012.12 1011.88 1011.56 1010.79 1009.99 1009.12 1008.50 1008.14 1007.82 1007.51 1007.59 1008.23 1008.35 1007.10 1006.43 1006.47 1007.06 1007.32 1008.40 1010.06 1011.34 1012.12 1012.10 1010.32 1008.69 1006.44 1004.84 1004.15 1004.26 1004.21 1004.37 1004.86 1005.46
1014.19 1014.13 1013.34 1012.84 1012.88 1013.74 1015.32 1015.44 1014.58 1013.81 1013.31 1013.17 1013.23 1013.02 1012.88 1012.43 1011.70 1010.69 1009.77 1009.11 1008.80 1008.26 1008.10 1008.49 1008.62 1008.14 1007.14 1006.80 1007.22 1008.09 1008.59 1009.82 1010.68 1011.28 1011.37 1010.52 1008.71 1005.92 1005.13 1004.73 1004.63 1004.51 1004.49 1004.65 1005.06
1014.77 1014.93 1013.40 1013.06 1014.16 1015.81 1016.15 1015.73 1015.16 1014.73 1014.28 1014.14 1014.08 1014.19 1014.06 1013.52 1012.75 1011.75 1010.93 1010.19 1009.91 1009.56 1008.96 1008.80 1008.89 1009.15 1008.04 1007.44 1007.11 1007.33 1008.18 1009.01 1010.54 1011.48 1011.14 1009.93 1007.44 1005.90 1005.28 1005.01 1005.01 1004.95 1004.50 1004.54 1004.70
1015.91 1015.59 1013.80 1013.68 1015.58 1016.65 1016.37 1016.11 1015.83 1015.55 1015.59 1015.36 1015.49 1015.35 1015.01 1014.71 1014.13 1012.95 1012.05 1010.94 1010.72 1010.54 1010.40 1009.32 1009.86 1009.69 1008.97 1008.40 1007.72 1007.67 1008.19 1008.73 1009.61 1010.22 1010.37 1009.86 1007.52 1006.16 1005.71 1006.08 1005.82 1005.95 1006.21 1005.40 1005.58
1016.66 1016.82 1015.89 1015.79 1016.96 1017.05 1017.19 1017.16 1016.62 1016.19 1016.40 1016.27 1016.47 1016.12 1015.99 1015.66 1015.15 1014.50 1013.65 1012.16 1011.74 1011.44 1010.55 1009.89 1010.10 1009.83 1009.12 1008.47 1008.08 1008.17 1008.15 1008.57 1009.01 1010.19 1009.92 1008.82 1007.73 1006.62 1006.47 1006.77 1006.61 1006.87 1007.23 1007.16 1006.74
1017.42 1018.67 1018.43 1018.03 1017.97 1017.89 1017.60 1017.63 1017.43 1017.12 1016.93 1016.95 1017.16 1017.19 1017.15 1016.85 1016.17 1015.65 1015.16 1014.01 1012.74 1012.58 1011.58 1011.32 1011.15 1010.27 1009.06 1008.41 1008.06 1008.09 1008.38 1008.50 1008.92 1008.80 1008.92 1008.39 1007.98 1006.69 1006.82 1007.15 1007.67 1007.34 1008.04 1008.16 1008.19
1018.69 1019.05 1018.89 1018.92 1018.52 1018.23 1018.22 1018.16 1017.81 1017.56 1017.51 1017.54 1017.65 1017.61 1017.57 1017.53 1017.16 1016.96 1016.71 1016.04 1014.98 1013.98 1013.59 1012.95 1012.10 1010.84 1009.59 1008.69 1008.52 1008.85 1008.84 1008.94 1009.05 1009.17 1008.59 1008.21 1007.73 1007.32 1007.49 1007.90 1008.55 1009.10 1009.28 1009.05 1009.18
1019.08 1019.18 1019.05 1019.55 1019.27 1018.94 1018.58 1018.12 1017.89 1017.85 1017.62 1017.47 1017.57 1017.63 1017.46 1017.21 1016.97 1016.66 1016.49 1016.37 1015.93 1016.22 1015.55 1014.55 1013.45 1012.29 1011.09 1009.72 1009.52 1009.78 1009.68 1009.46 1009.69 1009.77 1009.47 1008.81 1008.55 1008.25 1008.30 1008.93 1009.71 1009.98 1010.35 1010.94 1010.73
Thickness
5708 5712 5717 5722 5725 5729 5733 5738 5743 5748 5754 5759 5765 5769 5774 5783 5793 5794 5796 5816 5815 5812 5808 5805 5804 5799 5798 5791 5795 5792 5768 5759 5768 5772 5775 5795 5785 5798 5800 5787 5792 5796 5787 5784 5779
5708 5712 5716 5720 5723 5728 5732 5736 5741 5747 5751 5758 5765 5769 5775 5780 5787 5792 5816 5819 5818 5814 5803 5797 5791 5791 5780 5784 5787 5779 5763 5771 5785 5784 5781 5789 5787 5793 5786 5781 5775 5782 5785 5783 5778
5705 5710 5714 5718 5723 5726 5730 5736 5740 5745 5750 5755 5761 5768 5774 5780 5784 5797 5814 5816 5816 5814 5811 5805 5802 5790 5777 5783 5786 5781 5769 5786 5788 5792 5798 5785 5786 5795 5785 5774 5780 5775 5776 5778 5776
5701 5706 5711 5716 5721 5726 5731 5736 5740 5744 5748 5752 5758 5765 5773 5779 5759 5803 5813 5812 5812 5812 5806 5797 5789 5779 5779 5774 5794 5780 5794 5795 5789 5794 5793 5785 5785 5780 5782 5776 5787 5784 5783 5780 5775
5699 5704 5708 5714 5719 5725 5730 5735 5740 5744 5748 5751 5756 5761 5771 5769 5777 5804 5807 5807 5806 5805 5800 5795 5780 5783 5779 5790 5794 5789 5791 5792 5794 5796 5794 5786 5780 5779 5777 5784 5792 5782 5781 5775 5778
5697 5702 5707 5711 5717 5723 5728 5733 5738 5744 5747 5750 5753 5757 5762 5755 5799 5803 5802 5801 5802 5798 5796 5798 5794 5797 5787 5791 5788 5793 5790 5787 5787 5788 5788 5774 5774 5782 5777 5788 5787 5783 5778 5774 5775
5695 5700 5705 5710 5716 5721 5727 5732 5736 5743 5746 5749 5751 5755 5756 5766 5796 5799 5799 5797 5800 5796 5790 5798 5803 5792 5795 5784 5793 5792 5774 5777 5774 5778 5778 5782 5767 5772 5782 5783 5785 5783 5779 5776 5778
5692 5697 5702 5707 5713 5721 5727 5731 5736 5743 5745 5746 5747 5750 5749 5786 5792 5794 5798 5796 5798 5796 5793 5798 5802 5797 5786 5796 5786 5777 5771 5752 5770 5774 5778 5777 5758 5779 5783 5778 5779 5781 5779 5776 5775
5689 5694 5699 5704 5709 5718 5724 5729 5734 5740 5742 5741 5740 5742 5746 5784 5780 5793 5797 5791 5794 5789 5788 5795 5792 5782 5783 5766 5753 5757 5746 5752 5761 5781 5775 5769 5761 5776 5778 5775 5775 5780 5777 5779 5776
5685 5689 5693 5698 5703 5712 5719 5725 5726 5728 5728 5731 5737 5731 5756 5765 5779 5790 5795 5795 5787 5784 5774 5773 5766 5755 5754 5757 5729 5745 5748 5751 5757 5769 5772 5762 5761 5769 5775 5772 5774 5776 5779 5782 5779
5681 5685 5690 5694 5697 5702 5711 5714 5708 5710 5719 5723 5730 5733 5745 5764 5776 5779 5787 5781 5782 5772 5751 5762 5744 5735 5757 5762 5769 5764 5759 5756 5762 5770 5764 5758 5762 5764 5772 5771 5771 5772 5778 5780 5782
5676 5679 5683 5687 5691 5694 5694 5694 5691 5693 5694 5722 5729 5734 5744 5753 5744 5764 5781 5763 5760 5747 5755 5743 5733 5761 5767 5764 5764 5762 5761 5756 5759 5766 5764 5757 5758 5766 5769 5775 5775 5777 5778 5783 5782
5668 5669 5672 5677 5681 5681 5676 5683 5685 5685 5681 5702 5719 5724 5731 5739 5733 5747 5763 5762 5752 5742 5741 5732 5753 5767 5762 5757 5753 5757 5756 5759 5758 5757 5765 5755 5752 5761 5769 5775 5775 5781 5784 5786 5787
5664 5663 5661 5664 5667 5656 5665 5671 5674 5676 5648 5679 5701 5718 5722 5728 5729 5754 5761 5760 5748 5736 5736 5738 5759 5758 5752 5750 5755 5742 5771 5770 5753 5747 5732 5761 5729 5752 5765 5769 5773 5780 5785 5790 5793
5658 5655 5653 5648 5639 5645 5656 5657 5661 5659 5616 5679 5692 5717 5715 5710 5728 5739 5757 5750 5734 5735 5734 5731 5740 5744 5745 5751 5759 5754 5775 5768 5758 5740 5742 5745 5729 5756 5768 5761 5779 5787 5792 5800 5803
5654 5650 5645 5637 5630 5640 5645 5646 5646 5609 5605 5647 5674 5679 5691 5703 5714 5727 5734 5742 5739 5726 5730 5731 5748 5747 5749 5760 5762 5770 5762 5742 5733 5726 5709 5744 5739 5756 5761 5785 5787 5792 5795 5802 5804
5652 5648 5640 5632 5634 5635 5636 5633 5597 5588 5626 5631 5646 5657 5661 5678 5693 5705 5707 5709 5699 5689 5694 5716 5723 5742 5753 5740 5749 5745 5729 5697 5695 5692 5706 5738 5738 5771 5793 5804 5807 5802 5803 5807 5811
5652 5648 5640 5633 5631 5629 5627 5608 5593 5606 5611 5636 5640 5643 5649 5657 5673 5681 5688 5682 5696 5691 5670 5676 5682 5719 5741 5737 5728 5726 5724 5689 5688 5687 5716 5732 5734 5773 5808 5817 5822 5824 5822 5814 5812
5651 5643 5634 5631 5625 5620 5609 5577 5585 5597 5610 5616 5627 5628 5632 5645 5653 5666 5671 5667 5681 5689 5676 5665 5678 5719 5734 5740 5740 5718 5705 5732 5701 5701 5706 5725 5757 5791 5815 5816 5819 5821 5822 5820 5816
5640 5634 5628 5626 5618 5613 5590 5579 5589 5596 5601 5613 5605 5613 5615 5626 5636 5642 5653 5671 5674 5682 5690 5680 5675 5708 5726 5735 5732 5726 5731 5701 5683 5679 5687 5715 5738 5751 5791 5809 5816 5820 5824 5826 5824
5636 5626 5623 5619 5612 5595 5572 5575 5586 5598 5599 5597 5595 5601 5607 5613 5617 5628 5639 5658 5655 5670 5677 5674 5672 5689 5710 5705 5705 5704 5703 5696 5700 5691 5686 5700 5724 5780 5794 5805 5810 5817 5824 5828 5829
5624 5612 5621 5615 5589 5554 5569 5576 5583 5583 5587 5588 5593 5594 5596 5604 5609 5622 5630 5643 5645 5650 5667 5672 5653 5656 5684 5704 5714 5713 5709 5710 5682 5686 5690 5703 5731 5791 5794 5801 5808 5813 5826 5830 5835
5611 5604 5616 5611 5575 5566 5573 5574 5576 5573 5571 5573 5574 5583 5590 5592 5600 5612 5619 5637 5637 5640 5640 5664 5640 5638 5656 5675 5697 5704 5704 5701 5693 5690 5686 5696 5727 5784 5789 5791 5800 5805 5807 5821 5824
5605 5598 5596 5587 5562 5572 5566 5560 5560 5568 5562 5565 5563 5570 5574 5580 5588 5592 5602 5623 5629 5634 5653 5655 5635 5644 5640 5667 5679 5688 5698 5700 5698 5672 5688 5698 5738 5767 5780 5782 5791 5795 5796 5801 5810
5591 5580 5576 5571 5568 5562 5562 5558 5552 5551 5555 5552 5553 5555 5557 5560 5572 5580 5590 5601 5620 5623 5632 5633 5643 5645 5658 5669 5682 5684 5688 5691 5694 5702 5699 5720 5723 5759 5769 5776 5777 5788 5788 5790 5794
5584 5575 5565 5555 5556 5563 5548 5550 5550 5548 5547 5544 5543 5546 5548 5548 5558 5560 5567 5579 5591 5605 5608 5616 5634 5648 5663 5675 5674 5663 5673 5681 5685 5690 5702 5715 5723 5747 5759 5767 5767 5767 5771 5777 5781
5576 5571 5567 5554 5549 5550 5544 5548 5544 5539 5540 5540 5538 5535 5536 5540 5549 5554 5562 5570 5580 5579 5584 5597 5611 5622 5640 5655 5659 5652 5660 5670 5678 5686 5690 5695 5715 5734 5744 5747 5750 5754 5757 5755 5760